Location: Newark
(36.7344°N, 137.0547°E)
Time: 07:46:53
(UTC+00:00)

N. Korean satellite - Visible Passes

Search period start: 14 October 2019 00:00
Search period end: 24 October 2019 00:00
Orbit: 455 x 508 km, 97.2° (Epoch: 13 October)

Date Brightness Start Highest point End Pass type
(mag) Time Alt. Az. Time Alt. Az. Time Alt. Az.
14 Oct 9.7 19:59:41 10° NE 20:02:20 19° E 20:05:00 10° SE visible
17 Oct 9.8 08:49:02 10° SW 08:51:34 19° W 08:54:07 10° NW visible
17 Oct 8.7 20:16:38 10° NNE 20:19:55 33° E 20:23:15 10° SSE visible
18 Oct 10.0 19:52:15 10° NE 19:54:32 16° E 19:56:50 10° SE visible
20 Oct 10.4 09:08:01 10° WSW 09:09:09 11° W 09:10:17 10° WNW visible
20 Oct 7.3 20:33:51 10° NNE 20:37:27 60° E 20:41:05 10° S visible
21 Oct 9.3 08:40:51 10° SSW 08:43:42 24° W 08:46:34 10° NW visible
21 Oct 9.1 20:08:58 10° NE 20:12:06 27° E 20:15:15 10° SSE visible
22 Oct 10.3 19:44:57 10° ENE 19:46:40 13° E 19:48:24 10° ESE visible
